NOAA 17 DEB, 48702

Orbit data source: Space-Track

NOAA 17 DEB, 48702 is space debris in SSO originally from a launch on Mon, 24 Jun 2002 UTC launched from the Air Force Western Test Range (AFWTR). Debris objects in space refer to the collection of defunct objects orbiting the Earth. Examples of debris include non-operational satellites, rocket bodies, and fragments generated from explosions, collisions, or faulty payload assembly.

Loading next visibility...
Identifier
48702, 2002-032AK
Orbit
SSO
Country
Flag of USUS
Related business
Manufacturer
Unknown
Mission
Spacecraft
Bus & Motor
Unknown
Mass
Unknown
Launch date (UTC)
2002-06-24 (23 years ago)
Launch vehicle
Unknown
Launch site
Air Force Western Test Range (AFWTR)
Object type
Payload
Rocket body
Debris
Shape & HBR
Unknown shape, 0.1 m
Radar Cross Section
Small (<0.1 m²)

Expand to show TLE details & history
Last TLE update: 15 hours ago

TLE from 15 hours ago
0 NOAA 17 DEB
1 48702U 02032AK  25349.90110097  .00014795  00000-0  26024-2 0  9990
2 48702  98.6603 324.4914 0009532  32.3811 327.7975 14.67687653249793
Epoch: 2025-12-15T21:37Z
TLE epoch observation values (Epoch: 2025-12-15T21:37:35.123Z)
Latitude
-0.00005°
Longitude
-84.69796°
Altitude
665.758 km
Speed
7.527 km/s
True Right ascension
21h 37m 57s
True Declination
0° 00' 00"
Sunlit
Object was in daylight at epoch
Visualization orbit readout
Latitude
Unknown
Longitude
Unknown
Altitude
Unknown
Speed
Unknown
Apparent Right ascension
Unknown
Apparent Declination
Unknown
Sunlit
N/A
Visualization observer readout
Local Sidereal Time
11:39:03
Azimuth
Unknown
Elevation
Unknown
Doppler factor
Unknown
Orbital elements
Apogee altitude
672.266 km
Perigee altitude
658.838 km
Semi-major axis
7,043.689 km
Eccentricity
0.00095
Inclination
98.6603°
RAAN
324.4914°
Arg. of periapsis
32.3811°
True anomaly
327.73923°
Mean anomaly
327.7975°
Eccentric anomaly
327.76837°
Mean motion
3.67149 °/min
Orbital period
98.05 mins
BSTAR
0.0026024
Loading maneuver chart data...
Computing Atmospheric mass density...
Loading historical data...
Loading historical data...
Loading historical data...
Loading historical data...
Loading historical data...
Loading historical data...
Loading historical data...

Documentation

Showing up to 5 results
|